FENGYUN 1C DEB, 32311

Orbit data source: Space-Track

FENGYUN 1C DEB, 32311 is space debris in SSO originally from a launch on Mon, 10 May 1999 UTC launched from the Taiyaun Space Center, China (TSC). Fengyun 1C debris stems from the Chinese weather satellite Fengyun-1C, which was intentionally destroyed by a Chinese anti-satellite missile in 2007. This event dramatically increased the amount of space debris, with thousands of trackable fragments posing hazards to satellites and human spaceflight. The Fengyun 1C debris cloud has become a focal point in discussions about space sustainability and the need for international regulations to prevent the creation of new debris.

Loading next visibility...
Identifier
32311, 1999-025CXC
Orbit
SSO
Country
Flag of CNCN / PRC
Related business
Manufacturer
Unknown
Mission
Spacecraft
Bus & Motor
Unknown
Mass
Unknown
Launch date (UTC)
1999-05-10 (27 years ago)
Launch vehicle
Unknown
Launch site
Taiyaun Space Center, China (TSC)
Object type
Payload
Rocket body
Debris
Shape & HBR
Unknown shape, 0.1 m
Radar Cross Section
Medium (>0.1 m² and <1 m²)

Expand to show TLE details & history
Last TLE update: 2 weeks ago

TLE from 2 weeks ago
0 FENGYUN 1C DEB
1 32311U 99025CXC 26182.00878870  .00001946  00000-0  24968-2 0  9993
2 32311 101.7328  99.5918 0410755   6.1842 354.4135 13.34152598100072
Epoch: 2026-07-01T00:12Z
TLE epoch observation values (Epoch: 2026-07-01T00:12:39.343Z)
Latitude
-0.00005°
Longitude
177.35619°
Altitude
826.925 km
Speed
7.59 km/s
True Right ascension
06h 38m 22s
True Declination
0° 00' 00"
Sunlit
Object was in daylight at epoch
Visualization orbit readout
Latitude
Unknown
Longitude
Unknown
Altitude
Unknown
Speed
Unknown
Apparent Right ascension
Unknown
Apparent Declination
Unknown
Sunlit
N/A
Visualization observer readout
Local Sidereal Time
22:44:04
Azimuth
Unknown
Elevation
Unknown
Doppler factor
Unknown
Orbital elements
Apogee altitude
1,436.913 km
Perigee altitude
820.229 km
Semi-major axis
7,506.708 km
Eccentricity
0.04108
Inclination
101.7328°
RAAN
99.5918°
Arg. of periapsis
6.1842°
True anomaly
353.93068°
Mean anomaly
354.4135°
Eccentric anomaly
354.17463°
Mean motion
3.3371 °/min
Orbital period
107.88 mins
BSTAR
0.0024968
Loading maneuver chart data...
Computing Atmospheric mass density...

Documentation

Showing up to 5 results
|